Simultaneous Nadir Overpasses (SNOs) Predictions

Prediction of SNOs between FY3D and METOP-C Satellite Orbit:

Table of predicted SNOs for the next 14.0 days since TLE Epoch: 10/12/2024
Index Date (FY3D) Time (FY3D) Lat,Lon (FY3D) SZA (FY3D ) Date (METOP-C) Time (METOP-C) Lat,Lon (METOP-C) SZA (METOP-C ) Distance(km) Time Diff (sec)
1 10/25/2024 19:14:24 76.67,-109.19 89.08 10/25/2024 19:15:30 76.63,-106.21 89.11 76.54 66
2 10/25/2024 20:05:06 -76.53, 58.68 91.04 10/25/2024 20:06:16 -76.45, 60.45 91.08 46.81 70
3 10/25/2024 20:55:46 76.30,-133.16 88.77 10/25/2024 20:57:00 76.25,-132.95 88.72 8.40 74
4 10/25/2024 21:46:30 -76.25, 34.34 91.27 10/25/2024 21:47:42 -76.25, 34.38 91.27 1.20 72
5 10/25/2024 22:37:15 76.25,-158.34 88.74 10/25/2024 22:38:22 76.23,-158.37 88.72 2.81 67
6 10/25/2024 23:28:00 -76.25, 9.00 91.26 10/25/2024 23:29:04 -76.23, 8.97 91.27 1.76 64
7 10/26/2024 00:18:45 76.24, 176.31 88.76 10/26/2024 00:19:43 76.25, 176.38 88.77 2.03 58
8 10/26/2024 01:09:30 -76.24, -16.35 91.24 10/26/2024 01:10:25 -76.26, -16.28 91.22 2.70 55
9 10/26/2024 02:00:15 76.24, 150.97 88.78 10/26/2024 02:01:05 76.23, 150.97 88.77 0.52 50
10 10/26/2024 02:51:00 -76.23, -41.69 91.22 10/26/2024 02:51:47 -76.23, -41.69 91.21 0.59 47



Historial Predications of SNOs between FY3D and METOP-C
